This demonstration page uses our WeatherBlox Daily Observations layout. Learn more.

Left ArrowRight Arrow

38.89511, -77.03637

Hourly Observations for February 9, 2022

Temp ( °F °C ) Dew Point ( °F °C ) Humidity (%) Winds ( mph kmh ) Pressure ( in mb ) Visibility ( mi km ) Precip ( " mm )
12:52 am 00:52 Partly Cloudy 34 1.1 24 -4.4 67 67 Calm 30.11 1020 10 16 0.00 0.00
1:52 am 01:52 Mostly Clear 32 0 24 -4.4 73 73 Calm 30.10 1019 10 16 0.00 0.00
2:52 am 02:52 Mostly Clear 32 0 22 -5.6 66 66 NE 3 6 30.10 1019 10 16 0.00 0.00
3:52 am 03:52 Mostly Clear 31 -0.6 24 -4.4 76 76 Calm 30.09 1019 10 16 0.00 0.00
4:52 am 04:52 Mostly Clear 30 -1.1 22 -5.6 72 72 Calm 30.09 1019 10 16 0.00 0.00
5:52 am 05:52 Mostly Clear 30 -1.1 23 -5 75 75 NNE 6 9 30.09 1019 10 16 0.00 0.00
6:52 am 06:52 Mostly Clear 30 -1.1 23 -5 75 75 NE 6 9 30.10 1019 10 16 0.00 0.00
7:52 am 07:52 Sunny 31 -0.6 24 -4.4 76 76 NE 7 11 30.10 1019 10 16 0.00 0.00
8:52 am 08:52 Sunny 35 1.7 27 -2.8 72 72 Calm 30.11 1020 10 16 0.00 0.00
9:52 am 09:52 Sunny 40 4.4 31 -0.6 70 70 S 8 13 30.09 1019 10 16 0.00 0.00
10:52 am 10:52 Sunny 45 7.2 30 -1.1 56 56 S 7 11 30.08 1019 10 16 0.00 0.00
11:52 am 11:52 Sunny 49 9.4 29 -1.7 46 46 S 9 15 30.06 1018 10 16 0.00 0.00
12:52 pm 12:52 Mostly Sunny 52 11.1 27 -2.8 38 38 S 10 17 30.00 1016 10 16 0.00 0.00
1:52 pm 13:52 Mostly Sunny 54 12.2 28 -2.2 37 37 S 10 17 29.96 1015 10 16 0.00 0.00
2:52 pm 14:52 Mostly Sunny 53 11.7 29 -1.7 40 40 S 12 19 29.93 1014 10 16 0.00 0.00
3:52 pm 15:52 Mostly Sunny 54 12.2 29 -1.7 38 38 S 9 15 29.91 1013 10 16 0.00 0.00
4:52 pm 16:52 Mostly Sunny 53 11.7 29 -1.7 40 40 S 8 13 29.90 1013 10 16 0.00 0.00
5:52 pm 17:52 Mostly Clear 51 10.6 28 -2.2 41 41 SSE 9 15 29.90 1012 10 16 0.00 0.00
6:52 pm 18:52 Clear 50 10 29 -1.7 44 44 S 10 17 29.91 1013 10 16 0.00 0.00
7:52 pm 19:52 Clear 44 6.7 31 -0.6 60 60 S 9 15 29.92 1013 10 16 0.00 0.00
8:52 pm 20:52 Clear 44 6.7 30 -1.1 58 58 S 10 17 29.91 1013 10 16 0.00 0.00
9:52 pm 21:52 Clear 42 5.6 31 -0.6 65 65 S 9 15 29.91 1013 10 16 0.00 0.00
10:52 pm 22:52 Mostly Clear 42 5.6 31 -0.6 65 65 S 12 19 29.90 1013 10 16 0.00 0.00
11:52 pm 23:52 Cloudy 43 6.1 31 -0.6 63 63 S 13 20 29.90 1012 10 16 0.00 0.00

Powered by AerisWeather